Regional Weather Roundup
Issued by NWS

Home | Current Version | Previous Version | Graphics & Text | Print | Product List | Glossary Off
Versions: 1 2 3 4 5 6 7 8 9 10 11 12 13 14 15 16 17 18 19 20 21 22 23 24 25 26 27 28 29 30 31 32 33 34 35 36 37 38 39 40 41 42 43 44 45 46 47 48 49 50

000
ASUS43 KMKX 261028
RWRWI

WISCONSIN REGIONAL WEATHER ROUNDUP
NATIONAL WEATHER SERVICE MILWAUKEE/SULLIVAN WI
500 AM CDT TUE MAY 26 2015

NOTE: "FAIR" INDICATES FEW OR NO CLOUDS BELOW 12,000 FEET WITH NO
SIGNIFICANT WEATHER AND/OR OBSTRUCTIONS TO VISIBILITY.

WIZ001-002-006>008-014>016-023>028-261100-
NORTHWEST WISCONSIN

CITY           SKY/WX    TMP DP  RH WIND       PRES   REMARKS
SUPERIOR ARPT  FOG       48  48 100 CALM      29.83R VSB 1
ASHLAND        FOG       50  50 100 NE3       29.83R VSB 3/4
HAYWARD        FOG       54  53  97 CALM      29.80S VSB 1/2
SIREN          FOG       52  51  98 CALM      29.81R VSB 1/4
CUMBERLAND     FOG       52  52 100 CALM      29.79F VSB<1/4
RICE LAKE      FOG       56  55  97 N5        29.79F VSB<1/4
CHETEK         FOG       57  57 100 N3        29.78F VSB 1
LADYSMITH      FOG       59  58  97 CALM      29.81S VSB 1/2
EAU CLAIRE     MOCLDY    57  56  96 CALM      29.77S FOG
MENOMONIE      PTCLDY    57  57  98 CALM      29.78S FOG
NEW RICHMOND   FOG       54  54 100 N5        29.78F VSB 1/4
OSCEOLA        FOG       51  51 100 CALM      29.81F VSB 1
$$

WIZ003>005-009-010-017-018-261100-
NORTH CENTRAL WISCONSIN

CITY           SKY/WX    TMP DP  RH WIND       PRES   REMARKS
MANITOWISH WTR CLOUDY    59  59 100 W3        29.81R
ARBOR VITAE    MOCLDY    59  58  96 S3        29.81S FOG
WOODRUFF       MOCLDY    59  58  96 S3        29.81S FOG
RHINELANDER    CLOUDY    60  59  96 SW8       29.82F
EAGLE RIVER    CLOUDY    59  59 100 CALM      29.82S FOG
LAND O LAKES   FOG       57  57 100 CALM      29.83R VSB 1/2
PHILLIPS       PTCLDY    57  57 100 S3        29.80S FOG
TOMAHAWK       CLOUDY    57  56  97 CALM      29.81F FOG
MEDFORD        CLOUDY    58  58  99 CALM      29.80F
MERRILL        PTCLDY    53  53 100 CALM      29.82S FOG
$$

WIZ029-030-035-036-043>047-261100-
CENTRAL WISCONSIN

CITY           SKY/WX    TMP DP  RH WIND       PRES   REMARKS
WAUSAU         PTCLDY    62  60  93 SE7       29.81S
MOSINEE        MOCLDY    59  59 100 S6        29.83S
MARSHFIELD     FOG       60  58  92 S5        29.82R VSB 3/4
STEVENS POINT  MOCLDY    57  57  99 CALM      29.83R
WAUPACA        PTCLDY    62  62  98 CALM      29.84S
WAUTOMA        PTCLDY    58  58 100 CALM      29.84F
WISC RAPIDS    CLOUDY    63  60  90 S6        29.83S
CAMP DOUGLAS   MOCLDY    63  63 100 S7        29.80F
$$

WIZ011>013-019>022-031-037>040-048>050-261100-
NORTHEAST WISCONSIN

CITY           SKY/WX    TMP DP  RH WIND       PRES   REMARKS
ANTIGO         PTCLDY    57  57 100 CALM      29.84S FOG
SHAWANO          N/A     61  59  94 CALM      29.84R FOG
OCONTO         CLEAR     61  61 100 S3        29.83S
STURGEON BAY   CLEAR     64  57  77 S8        29.87R
GREEN BAY      CLEAR     62  59  90 S5        29.86R
MANITOWOC      CLEAR     60  58  92 S6        29.88R
APPLETON       MOCLDY    64  59  82 S8        29.86R
CLINTONVILLE   PTCLDY    59  59 100 S7        29.84R
OSHKOSH        CLEAR     63  59  87 S8        29.84F
$$

WIZ032>034-041-042-053>061-261100-
SOUTHWEST WISCONSIN

CITY           SKY/WX    TMP DP  RH WIND       PRES   REMARKS
LA CROSSE      CLOUDY    63  59  87 S5        29.80R
SPARTA         MOCLDY    60  57  91 CALM      29.81R
VIROQUA        CLOUDY    60  60 100 SE9       29.83R
BOSCOBEL       MOCLDY    60  58  92 CALM      29.83S
PRAIRIE DU CHI PTCLDY    61  56  86 E3        29.82F
PLATTEVILLE    CLOUDY    65  60  83 SE7       29.86S
$$

WIZ056-057-062-063-064-067-068-261100-
SOUTH CENTRAL WISCONSIN

CITY           SKY/WX    TMP DP  RH WIND       PRES   REMARKS
REEDSBURG      PTCLDY    64  62  90 CALM      29.84R
BARABOO/DELLS  PTCLDY    63  60  90 S12       29.85R
LONE ROCK      CLOUDY    62  60  93 E3        29.85R
MINERAL POINT  MOCLDY    63  61  94 CALM      29.87F
MADISON        CLOUDY    68  63  84 S6        29.87R
MIDDLETON      PTCLDY    67  64  89 SW6       29.88R
WATERTOWN      CLEAR     64  64 100 S5        29.88R
MONROE         PTCLDY    64  64 100 S12       29.88R
JANESVILLE     CLEAR     68  64  88 S9        29.89S
$$

WIZ051-052-058>065-066-070>072-261100-
SOUTHEAST WISCONSIN

CITY           SKY/WX    TMP DP  RH WIND       PRES   REMARKS
MILWAUKEE      CLEAR     65  60  84 S9        29.90S
WAUKESHA       FAIR      63  61  94 S7        29.91R
MILWAUKEE/TIMM CLEAR     66  59  77 SW10      29.90S
RACINE         PTCLDY    65  60  84 S6        29.93R
BURLINGTON     PTCLDY    63  62  96 S6        29.91S
KENOSHA        MOCLDY    68  64  87 SW9       29.92R
FOND DU LAC    CLEAR     67  61  81 S15       29.86S
SHEBOYGAN      CLEAR     60  58  92 S8        29.88R
WEST BEND      CLEAR     64  61  88 S3        29.89S
JUNEAU         CLEAR     62  60  93 S6        29.89S
$$

LSZ147-162-261100-
LAKE SUPERIOR

STATION/POSITION TIME  TEMP    WIND        PRES    WAVE
                       AIR SEA DIR/SP/G            HT/PER
                 (UTC) (F)     (DEG/KT/KT) (MB)    (FT/S)
W MID LAKE BUOY  0950   44 36  300/  4/  4   N/A     1/ 5
DEVILS ISLAND    1000   46     270/  5/  6   N/A
PORT WING        0900   44     290/  3/  4   N/A
SAXON HARBOR     0900   47        CALM       N/A
$$

LMZ867-665-643>646-261100-
LAKE MICHIGAN

STATION/POSITION TIME  TEMP    WIND        PRES    WAVE
                       AIR SEA DIR/SP/G            HT/PER
                 (UTC) (F)     (DEG/KT/KT) (MB)    (FT/S)
CHAMBERS ISLAND  0900   61     170/  4/  8   N/A
N MID LAKE BUOY  0950   41 37  180/ 10/ 12   N/A     2/ 5
NORTHPORT PIER   0900   53     140/  4/  5   N/A
SISTER BAY       0903   68     200/ 11/ 14   N/A
KEWAUNEE LAKESHO 1000   54     190/ 11/ 12   N/A
SHEBOYGAN LAKESH 1000   57     180/ 15/ 16   N/A
PORT WASHINGTON  0940   55      CALM  /  2   N/A
ATWATER BUOY     1000   52 46  190/  8/ 10   N/A
MILWAUKEE LAKESH 1000          140/  7/  8   N/A
S MID LAKE BUOY  0950   46 38  180/ 12/ 14   N/A     1/ 3
KENOSHA   LAKESH 1000   57     190/ 11/ 17   N/A
$$

TC  - TEMPERATURE IN CELSIUS
VSB - VISIBILITY IN STATUTE MILES
WCI - WIND CHILL INDEX
HX  - HEAT INDEX




USA.gov is the U.S. government's official web portal to all federal, state and local government web resources and services.